Main page


Airports :

Ula, Norway

Oil platform

latitude: 59-06-39N, longitude: 2-50-45E, elevation: 0 m

Current weather observation

The report was made 11 minutes ago, at 22:50 UTC
Wind 23 kt from the South
Temperature 5°C
Humidity 93%
Pressure 1003 hPa
Visibility 10 km or more

METAR: ENLA 222250Z AUTO 19023KT 9999NDV OVC024/// 05/04 Q1003 W///S3

Time: 00:01 (23:01 UTC)

TAF: missing

Weather observations and forecasts of more than 4000 airports (METAR and TAF reports).

The available stations are represented by yellow and red dots on the map.

Hover mouse over dot to see the name of the station.

Then click to see weather observations and forecasts.

To change the map : click on the green buttons with a black cross to zoom in, on the green button with a dash to zoom out, or on the green arrows for adjacent maps.